Location: *
(34.6780°N, 135.8310°E)
Time: 09:13:47
(UTC+00:00)

USA 238 DEB - Pass Details

Date: 18 October 2019
Orbit: 1028 x 1184 km, 63.4° (Epoch: 11 November)

Event Time Altitude Azimuth Distance (km) Brightness Sun altitude
Exits shadow 19:50:56 11° 312° (NW) 2,935 5.6 -15.9°
Maximum altitude 19:57:16 40° 248° (WSW) 1,658 4.3 -14.6°
Drops below altitude 10° 20:04:03 10° 181° (S) 3,093 6.1 -13.3°
Sets 20:06:59 0° 174° (S) 4,056 6.9 -12.7°
